Regional Weather Roundup
Issued by NWS

Home | Current Version | Previous Version | Graphics & Text | Print | Product List | Glossary On
Versions: 1 2 3 4 5 6 7 8 9 10 11 12 13 14 15 16 17 18 19 20 21 22 23 24 25 26 27
000
ASUS45 KCYS 231010
RWRWY

WYOMING REGIONAL WEATHER ROUNDUP
NATIONAL WEATHER SERVICE CHEYENNE WY
400 AM MDT SUN APR 23 2017

NOTE:  "FAIR" INDICATES FEW OR NO CLOUDS BELOW 12,000 FEET
WITH NO SIGNIFICANT WEATHER AND/OR OBSTRUCTIONS TO VISIBILITY.

WYZ001-231100-
YELLOWSTONE NATIONAL PARK

CITY           SKY/WX    TMP DP  RH WIND       PRES   REMARKS
LK YELLOWSTONE   N/A     26  23  88 CALM      30.00F
W YELLOWSTONE  NOT AVBL

$$
WYZ002>013-054>058-071-098>099-231100-
NORTHERN WYOMING

CITY           SKY/WX    TMP DP  RH WIND       PRES   REMARKS
JACKSON        FAIR      27  25  93 NE5       29.98S WCI  21
CODY           FAIR      42  36  79 CALM      29.90F
GREYBULL       FAIR      40  33  76 SE7       29.87F
WORLAND        FAIR      42  40  92 SE7       29.87F
SHERIDAN       FAIR      35  32  88 CALM      29.87F
BUFFALO        FAIR      43  30  60 NW10      29.89F
GILLETTE       FAIR      45  35  68 S15       29.86F
HULETT         FAIR      50  30  46 S10       29.88F
NEWCASTLE      FAIR      45  30  57 SE14G20   29.95F

$$
WYZ014>020-022>026-101>103-231100-
CENTRAL WYOMING

CITY           SKY/WX    TMP DP  RH WIND       PRES   REMARKS
BIG PINEY      FAIR      30  24  78 NW3       30.02F
PINEDALE       FAIR      27  23  86 CALM      30.03S
DUBOIS         FAIR      32  19  59 W13       29.96F WCI  22
LANDER         FAIR      46  29  51 S3        29.91F
RIVERTON       FAIR      44  33  65 W7        29.93F
CASPER         FAIR      43  30  60 SW13      29.93F
DOUGLAS        FAIR      38  32  79 CALM      29.95F

$$
WYZ021-027>030-104>119-231100-
SOUTHERN WYOMING

CITY           SKY/WX    TMP DP  RH WIND       PRES   REMARKS
EVANSTON       FAIR      42  21  43 S5        29.98F
KEMMERER         N/A     32  27  80 N8        30.00F WCI  25
ROCK SPRINGS   FAIR      38  22  52 SE10      30.01F WCI  31
DIXON            N/A     31  26  81 CALM      30.10F
RAWLINS        FAIR      42  19  39 S10       30.04F
SARATOGA       FAIR      37  21  52 S10       30.07F WCI  30
LARAMIE        FAIR      32  26  78 S7        30.04F WCI  26
CHEYENNE       FAIR      34  29  82 CALM      30.04F
TORRINGTON     FAIR      43  32  65 SE9       29.99F
PINE BLUFFS    FAIR      34  32  93 SW6       30.07S WCI  29

$$




USA.gov is the U.S. government's official web portal to all federal, state and local government web resources and services.